Regional Weather Roundup
Issued by NWS

Home | Current Version | Previous Version | Graphics & Text | Print | Product List | Glossary On
Versions: 1 2 3 4 5 6 7 8 9 10 11 12 13 14 15 16 17 18 19 20 21 22 23 24 25 26 27 28 29 30 31 32 33 34 35 36 37 38 39 40 41 42 43 44 45 46 47 48 49 50
000
ASUS43 KFSD 151310
RWRSD

WEATHER ROUNDUP FOR SOUTH DAKOTA
NATIONAL WEATHER SERVICE SIOUX FALLS SD
800 AM CDT MON SEP 15 2014

NOTE: "FAIR" INDICATES FEW OR NO CLOUDS BELOW 12,000 FEET WITH NO
SIGNIFICANT WEATHER AND/OR OBSTRUCTIONS TO VISIBILITY.


SDZ001>005-009-010-012>017-151400-
NORTHWEST AND NORTH CENTRAL SOUTH DAKOTA

CITY           SKY/WX    TMP DP  RH WIND       PRES   REMARKS
BUFFALO          N/A     36  34  92 E5        30.21R
FAITH            N/A     39  36  89 SW5       30.28R
MOBRIDGE       CLEAR     38  38 100 N5        30.26R
$$

SDZ012>016-024>037-041>051-057-063-072>074-151400-
SOUTHWEST AND SOUTH CENTRAL SOUTH DAKOTA

CITY           SKY/WX    TMP DP  RH WIND       PRES   REMARKS
RAPID CTY ARPT CLEAR     34  32  92 CALM      30.29R
PIERRE         CLEAR     39  37  92 CALM      30.28R
CUSTER         CLEAR     34  32  92 CALM      30.29R FOG
ELLSWORTH AFB  PTCLDY    38  36  91 W2        30.28S
PHILIP         CLEAR     33  32  96 W6        30.31R WCI  28
PINE RIDGE     CLEAR     30  29  96 CALM      30.31R FOG
WINNER         FAIR      47  43  86 NW3       30.29R
$$

SDZ004>011-016>023-039-040-151400-
NORTHEAST SOUTH DAKOTA

CITY           SKY/WX    TMP DP  RH WIND       PRES   REMARKS
ABERDEEN       CLEAR     36  35  96 NW5       30.27R
WATERTOWN      PTCLDY    45  43  93 W5        30.25R
SISSETON         N/A     45  42  89 NW6       30.24R
$$

SDZ017-020-022-023-036>040-048>070-151400-
SOUTHEAST SOUTH DAKOTA

CITY           SKY/WX    TMP DP  RH WIND       PRES   REMARKS
SIOUX FALLS    MOCLDY    48  46  93 N6        30.24R
HURON          CLEAR     39  38  96 NW3       30.28R
CHAMBERLAIN    CLEAR     42  40  93 CALM      30.28R
MITCHELL       CLEAR     43  42  97 NW6       30.27R
YANKTON        CLOUDY    48  46  93 NW5       30.24R
$$

ABBREVIATIONS USED IN REMARKS
   TC - TEMPERATURE IN CELSIUS
  WCI - WIND CHILL INDEX
   HX - HEAT INDEX
  VSB - VISIBILITY



USA.gov is the U.S. government's official web portal to all federal, state and local government web resources and services.